[[{"header":{"parameterUnit":"m.s-1","parameterCategory":1,"la1":30.2991,"la2":30.254,"lo1":-89.0895,"lo2":-89.0444,"dy":0.0017,"dx":0.0017,"nx":28,"ny":28,"refTime":"2026-02-12T03:00:00:Z","depth":0,"parameterNumber":2,"parameterNumberName":"U-component_of_WINDS"},"data":[0,0,0,0,0,0,0,0,0,0,0,0,0,0,0,0,0,0,0,0,0,0,0,0,0,0,0,0,0,0,0,0,0,0,0,0,0,0,0,0,0,0,0,0,0,0,0,0,0,0,0,0,0,0,0,0,0,0,-0.4388,-0.4389,0,-0.4405,-0.4405,-0.4406,-0.441,-0.441,-0.441,-0.441,-0.4428,-0.4428,-0.4429,0,0,0,0,0,0,0,0,0,0,0,0,0,-0.436,-0.4361,-0.4388,-0.4389,-0.4389,-0.4405,-0.4405,-0.4406,-0.441,-0.441,-0.441,-0.441,-0.4427,-0.4428,-0.4429,0,0,0,0,0,0,0,0,0,0,0,0,0,-0.4374,-0.4361,-0.4388,-0.4393,-0.4394,-0.4405,-0.4405,-0.4406,-0.441,-0.441,-0.441,-0.441,-0.4427,-0.4428,-0.4429,-0.4437,0,0,-0.4431,-0.4432,0,0,0,0,0,0,0,0,-0.4374,-0.4375,-0.4392,-0.4393,-0.4394,-0.4406,-0.4402,-0.4416,-0.441,-0.4404,-0.441,-0.441,-0.442,-0.4422,-0.4425,-0.4437,-0.4438,-0.4431,-0.4432,-0.4432,-0.4432,0,0,0,0,0,0,0,-0.4373,-0.4375,-0.4395,-0.4392,-0.4393,-0.4394,-0.4396,-0.4405,-0.4413,-0.4405,-0.4405,-0.4407,-0.4421,-0.4424,-0.4426,-0.4438,-0.4431,-0.4432,-0.4433,-0.4433,-0.4458,-0.4458,0,0,0,0,0,0,-0.4371,-0.4374,-0.4394,-0.4396,-0.4383,-0.4395,-0.4397,-0.4402,-0.4413,-0.4414,-0.4407,-0.4407,-0.4423,-0.4425,-0.4426,-0.4436,-0.4432,-0.4433,-0.4433,-0.4457,-0.4458,-0.4458,0,0,0,0,0,0,-0.437,-0.4373,-0.4394,-0.4385,-0.4388,-0.4396,-0.4401,-0.4402,-0.4406,-0.4415,-0.4416,-0.4409,-0.4423,-0.4425,-0.4434,-0.4437,-0.4433,-0.4434,-0.4457,-0.4458,-0.4458,-0.4456,0,0,0,0,0,0,-0.4369,-0.4372,-0.4375,-0.4385,-0.4388,-0.4401,-0.4401,-0.4403,-0.4407,-0.4408,-0.4417,-0.4419,-0.4423,-0.4433,-0.4435,-0.4438,-0.4435,-0.4457,-0.4457,-0.4458,-0.4456,-0.4456,-0.4456,0,0,0,0,0,-0.4368,-0.4374,-0.4376,-0.4378,-0.4392,-0.4401,-0.4403,-0.4408,-0.4408,-0.4411,-0.4416,-0.4418,-0.4436,-0.4434,-0.4436,-0.4439,-0.4457,-0.4457,-0.4458,-0.4456,-0.4456,-0.4456,0,0,0,0,0,0,-0.4366,-0.4376,-0.4377,-0.4387,-0.4393,-0.4402,-0.4406,-0.4409,-0.4415,-0.4415,-0.4421,-0.4423,-0.4432,-0.4436,-0.4433,-0.4447,-0.4447,-0.4447,-0.4444,-0.4445,-0.4445,-0.4444,-0.4435,0,0,0,0,0,-0.4366,-0.4373,-0.4381,-0.4388,-0.4392,-0.4398,-0.4403,-0.4406,-0.4413,-0.4416,-0.4422,-0.4429,-0.4436,-0.444,-0.4447,-0.4456,-0.4458,-0.446,-0.446,-0.446,-0.4461,-0.4466,-0.4467,-0.4459,-0.4459,-0.4459,0,0,-0.4367,-0.4373,-0.4377,-0.4388,-0.4394,-0.44,-0.4401,-0.4408,-0.4413,-0.4417,-0.4426,-0.443,-0.4438,-0.4447,-0.4451,-0.4451,-0.4463,-0.4461,-0.4461,-0.4461,-0.4466,-0.4467,-0.4468,-0.4459,-0.4459,-0.4459,0,0,-0.4372,-0.4378,-0.4385,-0.439,-0.4398,-0.4402,-0.4404,-0.4412,-0.4416,-0.4424,-0.4427,-0.4433,-0.4445,-0.4451,-0.4455,-0.4462,-0.4464,-0.4464,-0.4466,-0.447,-0.4471,-0.4471,-0.4474,-0.4475,-0.4465,-0.4465,-0.4465,0,-0.4373,-0.4383,-0.4388,-0.4395,-0.4399,-0.4403,-0.4409,-0.4414,-0.4424,-0.4427,-0.4427,-0.4442,-0.4447,-0.4458,-0.4459,-0.4462,-0.4464,-0.4463,-0.447,-0.4471,-0.4472,-0.4474,-0.4475,-0.4465,-0.4465,-0.4465,-0.4465,0,-0.4383,-0.439,-0.4394,-0.4404,-0.4409,-0.4416,-0.4421,-0.4426,-0.4428,-0.4433,-0.4441,-0.4448,-0.4456,-0.4459,-0.4461,-0.4469,-0.4469,-0.4469,-0.4469,-0.4472,-0.4475,-0.4476,-0.4464,-0.4464,-0.4464,-0.4465,0,0,-0.4388,-0.4399,-0.4401,-0.4405,-0.4414,-0.4419,-0.4426,-0.4434,-0.4438,-0.4444,-0.445,-0.446,-0.446,-0.4465,-0.4468,-0.4472,-0.4477,-0.4472,-0.4473,-0.4473,-0.4486,-0.4486,-0.4487,-0.4478,-0.4479,-0.4479,-0.4485,0,-0.4395,-0.4407,-0.4411,-0.4421,-0.4428,-0.4431,-0.4437,-0.4442,-0.4446,-0.4452,-0.4457,-0.4464,-0.4464,-0.4467,-0.4471,-0.4476,-0.448,-0.4475,-0.4484,-0.4484,-0.4482,-0.4488,-0.4488,-0.4494,-0.4486,-0.4487,-0.4487,0,-0.4405,-0.4411,-0.4422,-0.4429,-0.4432,-0.4437,-0.4445,-0.445,-0.4457,-0.446,-0.4465,-0.4467,-0.4474,-0.4473,-0.4483,-0.4479,-0.4483,-0.4486,-0.4486,-0.4488,-0.4486,-0.449,-0.4496,-0.4498,-0.4488,-0.4488,-0.4488,0,-0.4408,-0.4419,-0.4427,-0.443,-0.4439,-0.4443,-0.4446,-0.4453,-0.4457,-0.4464,-0.4466,-0.4473,-0.4477,-0.4483,-0.4487,-0.4486,-0.4497,-0.4495,-0.4499,-0.4499,-0.4502,-0.4502,-0.4509,-0.4503,-0.4503,-0.4503,-0.4503,0,-0.4415,-0.4422,-0.4428,-0.4433,-0.444,-0.4445,-0.4452,-0.4456,-0.4461,-0.4467,-0.4469,-0.4475,-0.448,-0.4486,-0.4489,-0.4497,-0.4499,-0.4501,-0.4502,-0.4501,-0.4501,-0.4504,-0.4504,-0.4504,-0.4504,-0.4504,-0.4503,0,-0.442,-0.4425,-0.4433,-0.4441,-0.4443,-0.4448,-0.4454,-0.4459,-0.4463,-0.447,-0.4472,-0.4478,-0.4485,-0.4489,-0.4498,-0.4501,-0.4509,-0.451,-0.4507,-0.4507,-0.4511,-0.4511,-0.4521,-0.4523,-0.4515,-0.4515,-0.4515,0,-0.4425,-0.443,-0.4438,-0.4442,-0.4445,-0.4452,-0.4456,-0.446,-0.4464,-0.4472,-0.4476,-0.4483,-0.4489,-0.45,-0.4505,-0.4512,-0.4513,-0.4516,-0.4514,-0.4513,-0.4513,-0.4513,-0.4514,-0.4517,-0.4517,-0.4517,-0.4517,0,-0.4433,-0.4435,-0.4441,-0.4448,-0.4453,-0.4458,-0.4464,-0.4467,-0.4472,-0.4476,-0.4483,-0.4488,-0.4497,-0.4504,-0.4511,-0.4515,-0.4517,-0.4517,-0.4518,-0.4518,-0.4516,-0.4518,-0.4508,-0.4517,-0.4517,-0.4517,-0.4517,-0.4517,-0.4439,-0.4443,-0.4449,-0.4456,-0.446,-0.4465,-0.447,-0.4474,-0.448,-0.4487,-0.4489,-0.4496,-0.4502,-0.4512,-0.4516,-0.4522,-0.4522,-0.4523,-0.4524,-0.4524,-0.4525,-0.4515,-0.4523,-0.4523,-0.4523,-0.4523,-0.4523,0,-0.4447,-0.4451,-0.4457,-0.4464,-0.4469,-0.447,-0.4476,-0.448,-0.4486,-0.4492,-0.4497,-0.4505,-0.4512,-0.4517,-0.4524,-0.4527,-0.4528,-0.4529,-0.4529,-0.453,-0.4524,-0.4523,-0.4528,-0.4528,-0.4528,-0.4528,-0.4528,-0.4528,-0.4452,-0.446,-0.4462,-0.4472,-0.4476,-0.4483,-0.4486,-0.4491,-0.4495,-0.4503,-0.4509,-0.4512,-0.4517,-0.4524,-0.453,-0.4532,-0.4534,-0.4535,-0.4537,-0.4531,-0.4531,-0.453,-0.4529,-0.4535,-0.4535,-0.4542,-0.4542,-0.4542]},{"header":{"parameterUnit":"m.s-1","parameterCategory":1,"la1":30.2991,"la2":30.254,"lo1":-89.0895,"lo2":-89.0444,"dy":0.0017,"dx":0.0017,"nx":28,"ny":28,"refTime":"2026-02-12T03:00:00:Z","depth":0,"parameterNumber":3,"parameterNumberName":"V-component_of_WINDS"},"data":[0,0,0,0,0,0,0,0,0,0,0,0,0,0,0,0,0,0,0,0,0,0,0,0,0,0,0,0,0,0,0,0,0,0,0,0,0,0,0,0,0,0,0,0,0,0,0,0,0,0,0,0,0,0,0,0,0,0,-0.8029,-0.803,0,-0.8064,-0.8064,-0.8064,-0.8051,-0.805,-0.805,-0.8049,-0.8086,-0.8088,-0.809,0,0,0,0,0,0,0,0,0,0,0,0,0,-0.7954,-0.7956,-0.8029,-0.803,-0.803,-0.8064,-0.8064,-0.8065,-0.8051,-0.805,-0.8049,-0.8048,-0.8086,-0.8088,-0.809,0,0,0,0,0,0,0,0,0,0,0,0,0,-0.7988,-0.7956,-0.8029,-0.8028,-0.8028,-0.8063,-0.8064,-0.8065,-0.8051,-0.805,-0.8049,-0.8048,-0.8085,-0.8088,-0.809,-0.813,0,0,-0.8098,-0.8099,0,0,0,0,0,0,0,0,-0.7986,-0.799,-0.8027,-0.8028,-0.8028,-0.8052,-0.8051,-0.8087,-0.8052,-0.8043,-0.8049,-0.8047,-0.8076,-0.8079,-0.8088,-0.8132,-0.8134,-0.8098,-0.81,-0.8101,-0.8102,0,0,0,0,0,0,0,-0.7984,-0.7989,-0.8043,-0.8028,-0.8028,-0.8026,-0.8029,-0.8058,-0.8066,-0.8043,-0.8042,-0.8046,-0.8076,-0.8086,-0.8089,-0.8134,-0.8098,-0.8101,-0.8102,-0.8103,-0.8213,-0.8214,0,0,0,0,0,0,-0.7981,-0.7987,-0.8042,-0.8044,-0.8003,-0.8028,-0.8032,-0.8045,-0.8065,-0.8067,-0.8047,-0.8046,-0.8082,-0.8086,-0.809,-0.8139,-0.8101,-0.8103,-0.8105,-0.8212,-0.8213,-0.8215,0,0,0,0,0,0,-0.7979,-0.7986,-0.804,-0.8015,-0.8022,-0.8031,-0.8046,-0.8047,-0.8057,-0.8068,-0.807,-0.8056,-0.8081,-0.8087,-0.812,-0.814,-0.8105,-0.8107,-0.821,-0.8212,-0.8214,-0.8236,0,0,0,0,0,0,-0.7977,-0.7985,-0.8,-0.8016,-0.8023,-0.8069,-0.8047,-0.8048,-0.8061,-0.8059,-0.8077,-0.8079,-0.8081,-0.8116,-0.8123,-0.8143,-0.8109,-0.8208,-0.8211,-0.8213,-0.8233,-0.8238,-0.8243,0,0,0,0,0,-0.7975,-0.8006,-0.8001,-0.8008,-0.8042,-0.807,-0.8075,-0.8076,-0.8063,-0.8078,-0.8085,-0.8078,-0.8137,-0.812,-0.8127,-0.8148,-0.8207,-0.821,-0.8213,-0.8231,-0.8237,-0.8242,0,0,0,0,0,0,-0.7993,-0.8008,-0.8003,-0.8039,-0.8054,-0.8068,-0.8087,-0.8082,-0.8101,-0.8098,-0.8099,-0.8104,-0.8138,-0.8147,-0.8128,-0.8188,-0.817,-0.8175,-0.8181,-0.8187,-0.8192,-0.8189,-0.8111,0,0,0,0,0,-0.8001,-0.8022,-0.8034,-0.8065,-0.8073,-0.8079,-0.8091,-0.8091,-0.8106,-0.8112,-0.8122,-0.8138,-0.8159,-0.8174,-0.8195,-0.8235,-0.8239,-0.8253,-0.8257,-0.8261,-0.8265,-0.8287,-0.8293,-0.8225,-0.8224,-0.8224,0,0,-0.8019,-0.8029,-0.8043,-0.8069,-0.808,-0.8103,-0.8084,-0.8109,-0.8125,-0.8116,-0.8148,-0.8156,-0.8173,-0.821,-0.8227,-0.8218,-0.8285,-0.8265,-0.8268,-0.827,-0.8291,-0.8297,-0.8303,-0.8227,-0.8226,-0.8226,0,0,-0.8062,-0.8072,-0.8099,-0.811,-0.8126,-0.813,-0.8137,-0.8152,-0.8157,-0.8189,-0.8182,-0.8203,-0.824,-0.8253,-0.8264,-0.8312,-0.8306,-0.8319,-0.8343,-0.8365,-0.837,-0.8375,-0.8392,-0.8398,-0.8323,-0.8323,-0.8323,0,-0.8081,-0.8114,-0.8114,-0.8139,-0.8151,-0.8142,-0.817,-0.8181,-0.8204,-0.8213,-0.8203,-0.825,-0.8261,-0.8301,-0.8312,-0.8322,-0.833,-0.8317,-0.8369,-0.8374,-0.8378,-0.8395,-0.8401,-0.8324,-0.8324,-0.8324,-0.8324,0,-0.8138,-0.8161,-0.8181,-0.8202,-0.8216,-0.8243,-0.8247,-0.8262,-0.826,-0.8265,-0.8298,-0.8311,-0.8335,-0.8344,-0.8343,-0.8384,-0.8378,-0.8368,-0.835,-0.8386,-0.8402,-0.8408,-0.8327,-0.8326,-0.8326,-0.8325,0,0,-0.8193,-0.8214,-0.8221,-0.8231,-0.8248,-0.8266,-0.8293,-0.8315,-0.8327,-0.8344,-0.8366,-0.8398,-0.8389,-0.8402,-0.8402,-0.8421,-0.8458,-0.8409,-0.841,-0.8418,-0.8505,-0.8512,-0.8519,-0.8455,-0.8456,-0.8457,-0.8503,0,-0.8238,-0.8283,-0.8283,-0.8325,-0.8346,-0.8339,-0.8361,-0.8375,-0.8381,-0.84,-0.8407,-0.8429,-0.8416,-0.8424,-0.8442,-0.845,-0.8476,-0.8447,-0.8476,-0.8477,-0.8472,-0.8527,-0.8535,-0.8578,-0.8509,-0.851,-0.8511,0,-0.8296,-0.8313,-0.8356,-0.8371,-0.838,-0.84,-0.842,-0.8439,-0.8455,-0.8457,-0.8472,-0.8469,-0.8497,-0.8477,-0.8516,-0.8496,-0.8508,-0.8514,-0.8515,-0.8518,-0.8496,-0.8532,-0.8592,-0.8599,-0.8521,-0.852,-0.8519,0,-0.8332,-0.8366,-0.8396,-0.8405,-0.8422,-0.8437,-0.8445,-0.846,-0.8473,-0.8491,-0.85,-0.8521,-0.8533,-0.855,-0.8553,-0.8539,-0.8591,-0.8572,-0.8595,-0.8595,-0.8607,-0.8606,-0.867,-0.8614,-0.8614,-0.8614,-0.8614,0,-0.8381,-0.8408,-0.8413,-0.8432,-0.8462,-0.8462,-0.8493,-0.85,-0.8513,-0.8533,-0.8528,-0.8548,-0.8551,-0.8572,-0.8575,-0.8606,-0.8612,-0.8615,-0.8616,-0.8616,-0.8615,-0.8624,-0.8621,-0.8616,-0.8615,-0.8615,-0.8615,0,-0.8427,-0.8431,-0.8464,-0.8477,-0.8482,-0.8503,-0.8516,-0.8534,-0.8539,-0.8565,-0.8571,-0.858,-0.8604,-0.8609,-0.8637,-0.8639,-0.8677,-0.8674,-0.8671,-0.8671,-0.8694,-0.8691,-0.8765,-0.8775,-0.8713,-0.8714,-0.8714,0,-0.8458,-0.8479,-0.8495,-0.8508,-0.8516,-0.8538,-0.8551,-0.8552,-0.8567,-0.8586,-0.8602,-0.8625,-0.8644,-0.8683,-0.8692,-0.8714,-0.8712,-0.8737,-0.8716,-0.8715,-0.8713,-0.8712,-0.8714,-0.8741,-0.8741,-0.8742,-0.8742,0,-0.8514,-0.8515,-0.8533,-0.8553,-0.8569,-0.8585,-0.86,-0.8611,-0.8615,-0.8631,-0.8655,-0.867,-0.8698,-0.8722,-0.8744,-0.8753,-0.8749,-0.8749,-0.8755,-0.8756,-0.8753,-0.8755,-0.8682,-0.8747,-0.8747,-0.8746,-0.8746,-0.8746,-0.8553,-0.8571,-0.8585,-0.8606,-0.8618,-0.8632,-0.865,-0.8657,-0.8677,-0.87,-0.87,-0.8726,-0.8742,-0.8771,-0.8781,-0.8803,-0.8795,-0.8804,-0.8807,-0.8809,-0.8811,-0.8749,-0.8807,-0.8806,-0.8806,-0.8806,-0.8806,0,-0.8609,-0.8617,-0.8637,-0.8657,-0.8674,-0.8668,-0.8684,-0.8699,-0.8722,-0.8736,-0.8755,-0.8783,-0.8805,-0.8816,-0.8839,-0.8854,-0.8852,-0.886,-0.8859,-0.8861,-0.8817,-0.8809,-0.8861,-0.8861,-0.886,-0.886,-0.886,-0.886,-0.8639,-0.8669,-0.8672,-0.8708,-0.8716,-0.8741,-0.8751,-0.8765,-0.8776,-0.8807,-0.8826,-0.8832,-0.8845,-0.8869,-0.889,-0.8892,-0.8901,-0.891,-0.8911,-0.887,-0.8864,-0.8859,-0.8852,-0.8912,-0.8912,-0.8954,-0.8955,-0.8955]}]]